Weather History for Whiting Fld NAS, FL

Change the Weather History Date:

Thursday, February 27, 2014

  Actual Average Record
Temperature  
Mean Temperature 43 °F -  
Max Temperature 54 °F 64 °F 81 °F (2011)
Min Temperature 30 °F 46 °F 26 °F (2002)
Degree Days  
Heating Degree Days 22    
Moisture  
Dew Point 22 °F    
Average Humidity 49    
Maximum Humidity 85    
Minimum Humidity 23    
Precipitation  
Precipitation 0.00 in - - ()
Sea Level Pressure  
Sea Level Pressure 30.00 in    
Wind  
Wind Speed 8 mph (NNW)    
Max Wind Speed 13 mph    
Max Gust Speed 20 mph    
Visibility 10 miles    
Events      
Averages and records for this station are not official NWS values.
T = Trace of Precipitation, MM = Missing Value Source: NWS Daily Summary

Daily Weather History Graph

Daily Weather History Graph

Search for Another Location

Airport:

Trip Planner

Search our weather history database for the weather conditions in past years. The results will help you decide how hot, cold, wet, or windy it might be!

Date:

Astronomy

Feb. 27, 2014 Rise Set
Actual Time 6:16 AM CST 5:45 PM CST
Civil Twilight 5:52 AM CST 6:09 PM CST
Nautical Twilight 5:24 AM CST 6:37 PM CST
Astronomical Twilight 4:56 AM CST 7:05 PM CST
Moon 4:43 AM CST (2/27) 4:13 PM CST (2/27)
Length of Visible Light 12h 17m
Length of Day
11h 28m
Waning Crescent, 4% of the Moon is Illuminated
Feb 27
Waning Crescent
Mar 1
New
Mar 8
First Quarter
Mar 16
Full
Mar 23
Last Quarter

Hourly Weather History & Observations

Time (CST) Temp. Windchill Dew Point Humidity Pressure Visibility Wind Dir Wind Speed Gust Speed Precip Events Conditions
12:56 AM 37.9 °F 32.7 °F 28.9 °F 70% 29.96 in 10.0 mi NNW 6.9 mph - N/A   Clear
1:56 AM 37.9 °F 32.1 °F 27.0 °F 65% 29.96 in 10.0 mi NNW 8.1 mph - N/A   Clear
2:56 AM 37.0 °F 33.3 °F 25.0 °F 62% 29.97 in 10.0 mi NNW 4.6 mph - N/A   Clear
3:56 AM 36.0 °F 29.0 °F 24.1 °F 62% 29.99 in 10.0 mi North 9.2 mph - N/A   Clear
4:56 AM 35.1 °F 28.6 °F 21.9 °F 59% 30.00 in 10.0 mi North 8.1 mph - N/A   Clear
5:56 AM 34.0 °F 25.5 °F 19.9 °F 56% 30.02 in 10.0 mi North 11.5 mph - N/A   Mostly Cloudy
6:56 AM 32.0 °F 24.8 °F 19.9 °F 61% 30.04 in 10.0 mi North 8.1 mph - N/A   Scattered Clouds
7:56 AM 35.1 °F 27.4 °F 16.0 °F 46% 30.05 in 10.0 mi NNE 10.4 mph 19.6 mph N/A   Partly Cloudy
8:56 AM 37.9 °F 30.9 °F 15.1 °F 39% 30.04 in 10.0 mi NNW 10.4 mph 17.3 mph N/A   Partly Cloudy
9:56 AM 42.1 °F 36.6 °F 16.0 °F 35% 30.05 in 10.0 mi NNW 9.2 mph - N/A   Partly Cloudy
10:56 AM 46.0 °F 40.2 °F 17.1 °F 31% 30.03 in 10.0 mi NNW 12.7 mph - N/A   Scattered Clouds
11:56 AM 48.9 °F - 15.1 °F 26% 30.01 in 10.0 mi NNW 9.2 mph 18.4 mph N/A   Scattered Clouds
12:56 PM 51.1 °F - 16.0 °F 25% 29.99 in 10.0 mi NNW 9.2 mph 16.1 mph N/A   Scattered Clouds
1:56 PM 54.0 °F - 17.1 °F 23% 29.97 in 10.0 mi NNW 9.2 mph - N/A   Scattered Clouds
2:56 PM 53.1 °F - 17.1 °F 24% 29.96 in 10.0 mi NW 6.9 mph - N/A   Scattered Clouds
3:56 PM 54.0 °F - 18.0 °F 24% 29.95 in 10.0 mi NNW 12.7 mph - N/A   Scattered Clouds
4:56 PM 53.1 °F - 19.0 °F 26% 29.95 in 10.0 mi NNW 9.2 mph - N/A   Scattered Clouds
5:56 PM 46.0 °F 43.9 °F 27.0 °F 47% 29.96 in 10.0 mi NNW 4.6 mph - N/A   Partly Cloudy
6:56 PM 41.0 °F 39.0 °F 28.0 °F 60% 29.98 in 10.0 mi NNW 3.5 mph - N/A   Clear
7:56 PM 37.9 °F 34.4 °F 28.9 °F 70% 30.00 in 10.0 mi NNW 4.6 mph - N/A   Clear
8:56 PM 39.0 °F 33.4 °F 25.0 °F 57% 30.01 in 10.0 mi North 8.1 mph - N/A   Clear
9:56 PM 35.1 °F 28.6 °F 23.0 °F 61% 30.02 in 10.0 mi North 8.1 mph - N/A   Clear
10:56 PM 35.1 °F 32.2 °F 27.0 °F 72% 30.02 in 10.0 mi North 3.5 mph - N/A   Clear
11:56 PM 30.9 °F 27.5 °F 27.0 °F 85% 30.01 in 10.0 mi North 3.5 mph - N/A   Clear